Flag for France Weather past 2 weeks in Biarritz, France

Now
68 °F

Partly sunny.


Feels Like: 68 °F
Forecast: 57 / 75 °F
Wind: 7 mph from West

Location: Biarritz Airport

Current Time: Aug 23, 2014 at 1:46:27 PM

Latest Report: Aug 23, 2014 at 1:00 PM


Visibility: N/A

Pressure: 30.18 "Hg

Humidity: 69%

Dew point: 57 °F

Location of BiarritzLocation

Historic Weather in Biarritz — Graph

°F

Biarritz temperature yesterday

Maximum temperature yesterday: 64 °F (at 12:00 PM)
Minimum temperature yesterday: 55 °F (at 3:30 AM)
Average temperature yesterday: 60 °F

Past Weeks' High & Low Weather Summary

 TemperatureHumidityPressure
High84 °F (Aug 8, 2:30 PM)100% (Aug 23, 1:30 AM)30.30 "Hg (Aug 23, 1:30 AM)
Low54 °F (Aug 17, 5:00 AM)50% (Aug 16, 5:30 PM)29.74 "Hg (Aug 9, 8:30 PM)
Average66 °F76%30.05 "Hg
* Reported Aug 8 12:07 PM — Aug 23 12:30 PM, Biarritz, Weather by CustomWeather, © 2014

Note: Actual official high and low records may vary slightly from our data, if they occured in-between our weather recording intervals... More about our weather records

Advertising

Biarritz weather history for previous 24 hours

 ConditionsComfort  
Time TempWeatherWind HumidityBarometerVisibility
12:30 PM
Aug 23
68 °FBroken clouds.3 mph69%30.18 "HgN/A
12:00 PM66 °FPartly sunny.2 mph73%30.15 "HgN/A
11:30 AM66 °FPartly sunny.1 mph68%30.15 "HgN/A
11:00 AM66 °FPartly sunny.1 mph68%30.15 "HgN/A
10:30 AM64 °FPartly sunny.1 mph73%30.15 "HgN/A
10:00 AM63 °FPartly sunny.3 mph73%30.15 "HgN/A
9:30 AM61 °FBroken clouds.1 mph83%30.12 "HgN/A
9:00 AM59 °FBroken clouds.2 mph82%30.12 "HgN/A
8:30 AM57 °FPartly sunny.3 mph88%30.12 "HgN/A
8:00 AM57 °FPassing clouds.3 mph88%30.12 "HgN/A
7:30 AM57 °FPassing clouds.1 mph88%30.12 "HgN/A
7:00 AM57 °FPassing clouds.3 mph82%30.12 "HgN/A
6:30 AM55 °FPassing clouds.3 mph88%30.12 "HgN/A
6:00 AM55 °FPassing clouds.3 mph94%30.12 "HgN/A
5:30 AM55 °FOvercast.3 mph94%30.12 "HgN/A
5:00 AM55 °FOvercast.3 mph94%30.12 "HgN/A
4:30 AM55 °FOvercast.3 mph94%30.12 "HgN/A
4:00 AM55 °FOvercast.2 mph88%30.12 "HgN/A
3:30 AM55 °FOvercast.3 mph94%30.12 "HgN/A
3:00 AM55 °FPassing clouds.2 mph94%30.12 "HgN/A
2:30 AM55 °FPassing clouds.3 mph88%30.12 "HgN/A
2:00 AM55 °FPassing clouds.3 mph94%30.12 "HgN/A
1:30 AM55 °FClear.3 mph100%30.12 "HgN/A
1:00 AM57 °FClear.2 mph88%30.12 "HgN/A
12:30 AM57 °FClear.2 mph94%30.15 "HgN/A
12:00 AM57 °FPassing clouds.2 mph94%30.12 "HgN/A
11:30 PM
Aug 22
59 °FOvercast.3 mph88%30.12 "HgN/A
11:00 PM59 °FOvercast.2 mph88%30.12 "HgN/A
10:30 PM59 °FOvercast.2 mph94%30.12 "HgN/A
10:00 PM59 °FOvercast.2 mph88%30.12 "HgN/A
9:30 PM61 °FOvercast.2 mph83%30.12 "HgN/A
9:00 PM61 °FOvercast.1 mph88%30.09 "HgN/A
8:30 PM61 °FMostly cloudy.1 mph83%30.09 "HgN/A
8:00 PM61 °FOvercast.3 mph83%30.09 "HgN/A
7:30 PM61 °FOvercast.3 mph83%30.09 "HgN/A
7:00 PM61 °FPartly sunny.2 mph83%30.09 "HgN/A
6:30 PM59 °FPartly sunny.2 mph88%30.09 "HgN/A
6:00 PM61 °FPartly sunny.3 mph83%30.09 "HgN/A
5:30 PM61 °FPartly sunny.3 mph83%30.09 "HgN/A
5:00 PM61 °FLight rain. Broken clouds.3 mph83%30.09 "HgN/A
4:30 PM61 °FLight rain. Partly sunny.3 mph83%30.09 "HgN/A
4:00 PM61 °FLight rain. Partly sunny.5 mph83%30.09 "HgN/A
3:30 PM61 °FPartly sunny.3 mph88%30.09 "HgN/A
3:00 PM61 °FPartly sunny.3 mph83%30.09 "HgN/A
2:30 PM61 °FPartly sunny.3 mph83%30.09 "HgN/A
2:00 PM61 °FPartly sunny.3 mph83%30.09 "HgN/A
1:30 PM61 °FPartly sunny.3 mph83%30.09 "HgN/A
1:00 PM61 °FBroken clouds.3 mph83%30.09 "HgN/A
Weather by CustomWeather, © 2014

See weather overviewHow to use our weather pages